Location: Waco, TX
(31.5480°N, 97.1670°W)
Time: 22:56:55
(UTC-05:00)

ISS - Pass Details

Date: 23 April 2018
Orbit: 403 x 406 km, 51.6° (Epoch: 23 April)

Event Time Altitude Azimuth Distance (km) Brightness Sun altitude
Rises 16:15:18 0° 320° (NW) 2,322 0.2 47.1°
Reaches altitude 10° 16:17:26 10° 327° (NNW) 1,461 -0.7 46.6°
Maximum altitude 16:20:36 46° 42° (NE) 550 -3.0 46.0°
Drops below altitude 10° 16:23:46 10° 118° (ESE) 1,455 -1.2 45.3°
Sets 16:25:53 0° 124° (SE) 2,312 -0.3 44.9°
